This is the latest recevied weather packets stored in our database for station/object WS2Z. If no packets are shown the sender has not sent any weather packets the latest 10 day(s).
| Time | Temp. | Humidity | Pressure | Rain* | Wind** | Luminosity | Snow |
|---|---|---|---|---|---|---|---|
| 1778071424 | 23.33° C | 92% | 1016.7 hPa | 0 mm | - | 60 W/m² | - |
| 1778071121 | 23.33° C | 91% | 1016.8 hPa | 0 mm | - | 54 W/m² | - |
| 1778070820 | 22.78° C | 94% | 1016.8 hPa | 0 mm | - | 52 W/m² | - |
| 1778070516 | 22.22° C | 94% | 1016.6 hPa | 0 mm | - | 64 W/m² | - |
| 1778070213 | 21.67° C | 95% | 1016.7 hPa | 0 mm | - | 49 W/m² | - |
| 1778069912 | 21.67° C | 95% | 1016.5 hPa | 0 mm | - | 44 W/m² | - |
| 1778069608 | 21.11° C | 96% | 1016.6 hPa | 0 mm | - | 46 W/m² | - |
| 1778069306 | 21.11° C | 96% | 1016.6 hPa | 0 mm | - | 39 W/m² | - |
| 1778069003 | 20.56° C | 96% | 1016.5 hPa | 0 mm | - | 37 W/m² | - |
| 1778068700 | 20.56° C | 96% | 1016.6 hPa | 0 mm | - | 39 W/m² | - |
| 1778068398 | 20.56° C | 96% | 1016.5 hPa | 0 mm | - | 34 W/m² | - |
| 1778068096 | 20.56° C | 96% | 1016.3 hPa | 0 mm | - | 53 W/m² | - |
| 1778067794 | 20.56° C | 97% | 1016.3 hPa | 0 mm | - | 44 W/m² | - |
| 1778067492 | 20.56° C | 96% | 1016.1 hPa | 0 mm | - | 26 W/m² | - |
| 1778067189 | 20° C | 96% | 1016.1 hPa | 0 mm | - | 22 W/m² | - |
| 1778066886 | 20° C | 96% | 1016 hPa | 0 mm | - | 18 W/m² | - |
| 1778066583 | 20° C | 96% | 1016.1 hPa | 0 mm | - | 13 W/m² | - |
| 1778066280 | 20° C | 95% | 1016 hPa | 0 mm | - | 11 W/m² | - |
| 1778065978 | 20° C | 96% | 1015.9 hPa | 0 mm | - | 10 W/m² | - |
| 1778065675 | 20° C | 96% | 1016.1 hPa | 0 mm | - | 9 W/m² | - |
| 1778065373 | 20° C | 96% | 1015.9 hPa | 0 mm | - | 7 W/m² | - |
| 1778065069 | 20° C | 96% | 1016 hPa | 0 mm | - | 5 W/m² | - |
| 1778064766 | 20° C | 96% | 1016 hPa | 0 mm | - | 3 W/m² | - |
| 1778064464 | 20° C | 96% | 1016 hPa | 0 mm | - | 2 W/m² | - |
| 1778064161 | 20° C | 96% | 1016.1 hPa | 0 mm | - | 1 W/m² | - |
* Rain latest hour (hover to see other rain measurements)
** Current wind speed in m/s (hover to see current wind gust speed)